| time (UTC) | temp C | wind direction | speed KPH | gust KPH | rain 1hr cm | rain 24hr cm | rain mn cm | humidity % | barometer mb |
| 20260510162340 | 27 | 145 | 0.0 | 4.8 | 0.00 | 0.05 | 0.05 | 55 | 1014.1 |
| 20260510161838 | 26 | 173 | 1.6 | 3.2 | 0.00 | 0.05 | 0.05 | 64 | 1014.1 |
| 20260510161554 | 26 | 44 | 0.0 | 0.0 | 0.00 | 0.00 | 0.05 | 60 | 1013.9 |
| 20260510161408 | 26 | 304 | 1.6 | 3.2 | 0.00 | 0.05 | 0.05 | 57 | 1014.1 |
| 20260510160848 | 26 | 109 | 0.0 | 3.2 | 0.00 | 0.05 | 0.05 | 66 | 1014.1 |
| 20260510160339 | 26 | 109 | 1.6 | 3.2 | 0.00 | 0.05 | 0.05 | 61 | 1014.2 |
| 20260510160005 | 25 | 263 | 1.6 | 0.0 | 0.00 | 0.00 | 0.05 | 59 | 1014.0 |
| 20260510155841 | 25 | 258 | 1.6 | 3.2 | 0.00 | 0.05 | 0.05 | 64 | 1014.2 |
| 20260510155341 | 25 | 175 | 0.0 | 8.0 | 0.00 | 0.05 | 0.05 | 59 | 1014.3 |
| 20260510154841 | 25 | 245 | 3.2 | 8.0 | 0.00 | 0.05 | 0.05 | 64 | 1014.3 |
| 20260510154552 | 24 | 302 | 1.6 | 0.0 | 0.00 | 0.00 | 0.05 | 62 | 1014.2 |
| 20260510154410 | 25 | 304 | 1.6 | 4.8 | 0.00 | 0.05 | 0.05 | 65 | 1014.4 |
| 20260510153849 | 24 | 207 | 0.0 | 4.8 | 0.00 | 0.05 | 0.05 | 63 | 1014.4 |
| 20260510153343 | 23 | 14 | 1.6 | 3.2 | 0.00 | 0.05 | 0.05 | 67 | 1014.5 |
| 20260510153025 | 23 | 42 | 1.6 | 0.0 | 0.00 | 0.00 | 0.05 | 67 | 1014.3 |
| 20260510152911 | 23 | 42 | 0.0 | 3.2 | 0.00 | 0.05 | 0.05 | 72 | 1014.5 |
| 20260510152349 | 23 | 43 | 1.6 | 3.2 | 0.00 | 0.05 | 0.05 | 72 | 1014.3 |
| 20260510151831 | 23 | 104 | 0.0 | 3.2 | 0.00 | 0.05 | 0.05 | 72 | 1014.3 |
| 20260510151618 | 23 | 104 | 1.6 | 0.0 | 0.00 | 0.00 | 0.05 | 69 | 1014.0 |
| 20260510151332 | 23 | 198 | 0.0 | 4.8 | 0.03 | 0.05 | 0.05 | 71 | 1014.2 |
| 20260510150858 | 23 | 234 | 3.2 | 4.8 | 0.03 | 0.05 | 0.05 | 71 | 1014.3 |
| 20260510150349 | 23 | 269 | 1.6 | 3.2 | 0.03 | 0.05 | 0.05 | 72 | 1014.1 |
| 20260510150100 | 22 | 217 | 1.6 | 0.0 | 0.00 | 0.00 | 0.05 | 72 | 1014.0 |
| 20260510150006 | 22 | 194 | 1.6 | 0.0 | 0.00 | 0.00 | 0.05 | 72 | 1014.0 |
| 20260510145849 | 22 | 105 | 1.6 | 3.2 | 0.03 | 0.05 | 0.05 | 74 | 1014.2 |
| 20260510145349 | 22 | 242 | 0.0 | 3.2 | 0.03 | 0.05 | 0.05 | 77 | 1014.3 |
| 20260510144849 | 22 | 264 | 0.0 | 4.8 | 0.03 | 0.05 | 0.05 | 75 | 1014.3 |
| 20260510144547 | 22 | 257 | 1.6 | 0.0 | 0.00 | 0.00 | 0.05 | 75 | 1014.1 |
| 20260510144348 | 22 | 342 | 1.6 | 6.4 | 0.03 | 0.05 | 0.05 | 78 | 1014.2 |
| 20260510143831 | 22 | 150 | 1.6 | 6.4 | 0.03 | 0.05 | 0.05 | 77 | 1014.2 |
| 20260510143355 | 21 | 223 | 1.6 | 6.4 | 0.03 | 0.05 | 0.05 | 79 | 1014.2 |
| 20260510143056 | 21 | 228 | 1.6 | 0.0 | 0.00 | 0.00 | 0.05 | 79 | 1014.1 |
| 20260510142856 | 21 | 84 | 1.6 | 6.4 | 0.03 | 0.05 | 0.05 | 80 | 1014.2 |
| 20260510142336 | 21 | 95 | 1.6 | 3.2 | 0.03 | 0.05 | 0.05 | 83 | 1014.2 |
| 20260510141835 | 21 | 213 | 1.6 | 3.2 | 0.03 | 0.05 | 0.05 | 82 | 1014.1 |
| 20260510141508 | 20 | 34 | 1.6 | 0.0 | 0.00 | 0.00 | 0.03 | 84 | 1014.1 |
| 20260510141333 | 21 | 9 | 0.0 | 3.2 | 0.00 | 0.03 | 0.03 | 84 | 1014.3 |
| 20260510140832 | 20 | 236 | 0.0 | 3.2 | 0.00 | 0.03 | 0.03 | 83 | 1014.3 |
| 20260510140344 | 20 | 236 | 1.6 | 3.2 | 0.00 | 0.03 | 0.03 | 84 | 1014.3 |
| 20260510140030 | 20 | 127 | 1.6 | 0.0 | 0.00 | 0.00 | 0.03 | 85 | 1014.1 |
| 20260510135844 | 20 | 126 | 0.0 | 4.8 | 0.00 | 0.03 | 0.03 | 85 | 1014.3 |
| 20260510135341 | 20 | 248 | 0.0 | 4.8 | 0.00 | 0.03 | 0.03 | 86 | 1014.4 |
| 20260510134843 | 19 | 214 | 0.0 | 4.8 | 0.00 | 0.03 | 0.03 | 88 | 1014.3 |
| 20260510134518 | 19 | 321 | 0.0 | 0.0 | 0.00 | 0.00 | 0.03 | 89 | 1014.2 |
| 20260510134343 | 19 | 317 | 1.6 | 4.8 | 0.00 | 0.03 | 0.03 | 90 | 1014.3 |
| 20260510133840 | 19 | 252 | 0.0 | 1.6 | 0.00 | 0.03 | 0.03 | 90 | 1014.3 |
| 20260510133409 | 19 | 226 | 0.0 | 4.8 | 0.00 | 0.03 | 0.03 | 90 | 1014.3 |
| 20260510133047 | 18 | 227 | 0.0 | 0.0 | 0.00 | 0.00 | 0.03 | 90 | 1014.0 |
| 20260510132849 | 19 | 225 | 0.0 | 4.8 | 0.00 | 0.03 | 0.03 | 91 | 1014.1 |
| 20260510132349 | 18 | 81 | 0.0 | 3.2 | 0.00 | 0.03 | 0.03 | 92 | 1014.0 |
| 20260510131831 | 18 | 140 | 1.6 | 3.2 | 0.00 | 0.03 | 0.03 | 93 | 1014.0 |
| 20260510131537 | 18 | 206 | 0.0 | 0.0 | 0.00 | 0.00 | 0.03 | 93 | 1013.8 |
| 20260510131331 | 18 | 206 | 1.6 | 1.6 | 0.00 | 0.03 | 0.03 | 93 | 1014.0 |
| 20260510130829 | 18 | 267 | 1.6 | 3.2 | 0.00 | 0.03 | 0.03 | 94 | 1014.0 |
| 20260510130343 | 18 | 295 | 1.6 | 3.2 | 0.00 | 0.03 | 0.03 | 94 | 1013.9 |
| 20260510130008 | 18 | 257 | 1.6 | 0.0 | 0.00 | 0.00 | 0.03 | 94 | 1013.7 |
| 20260510125841 | 18 | 344 | 1.6 | 4.8 | 0.00 | 0.03 | 0.03 | 94 | 1013.9 |
| 20260510125341 | 18 | 326 | 1.6 | 4.8 | 0.00 | 0.03 | 0.03 | 94 | 1013.8 |
| 20260510124909 | 18 | 269 | 1.6 | 3.2 | 0.00 | 0.03 | 0.03 | 94 | 1013.8 |
| 20260510124535 | 17 | 336 | 1.6 | 0.0 | 0.00 | 0.00 | 0.03 | 94 | 1013.6 |
| 20260510124343 | 18 | 337 | 1.6 | 3.2 | 0.00 | 0.03 | 0.03 | 94 | 1013.8 |
| 20260510123842 | 18 | 286 | 1.6 | 3.2 | 0.00 | 0.03 | 0.03 | 94 | 1013.8 |
| 20260510123343 | 17 | 162 | 1.6 | 3.2 | 0.00 | 0.03 | 0.03 | 94 | 1013.8 |
| 20260510123030 | 17 | 259 | 0.0 | 0.0 | 0.00 | 0.00 | 0.03 | 94 | 1013.6 |
| 20260510122910 | 17 | 259 | 0.0 | 1.6 | 0.00 | 0.03 | 0.03 | 95 | 1013.8 |
| 20260510122347 | 17 | 259 | 0.0 | 3.2 | 0.00 | 0.03 | 0.03 | 94 | 1013.7 |
| 20260510121846 | 17 | 259 | 0.0 | 4.8 | 0.00 | 0.03 | 0.03 | 94 | 1013.7 |
| 20260510121552 | 17 | 295 | 0.0 | 0.0 | 0.00 | 0.00 | 0.03 | 95 | 1013.4 |
| 20260510121348 | 17 | 286 | 0.0 | 4.8 | 0.00 | 0.03 | 0.03 | 95 | 1013.7 |
| 20260510120829 | 17 | 321 | 0.0 | 3.2 | 0.00 | 0.03 | 0.03 | 95 | 1013.6 |
| 20260510120411 | 17 | 337 | 0.0 | 1.6 | 0.00 | 0.03 | 0.03 | 94 | 1013.6 |
| 20260510120056 | 16 | 337 | 0.0 | 0.0 | 0.00 | 0.00 | 0.03 | 94 | 1013.4 |
| 20260510120009 | 16 | 337 | 0.0 | 0.0 | 0.00 | 0.00 | 0.03 | 94 | 1013.4 |
| 20260510115851 | 16 | 337 | 0.0 | 1.6 | 0.00 | 0.03 | 0.03 | 94 | 1013.6 |
| 20260510115352 | 16 | 337 | 0.0 | 1.6 | 0.00 | 0.03 | 0.03 | 94 | 1013.5 |
| 20260510114849 | 16 | 337 | 0.0 | 0.0 | 0.00 | 0.03 | 0.03 | 94 | 1013.4 |
| 20260510114547 | 16 | 337 | 0.0 | 0.0 | 0.00 | 0.00 | 0.03 | 94 | 1013.3 |
| 20260510114349 | 16 | 337 | 0.0 | 0.0 | 0.00 | 0.03 | 0.03 | 94 | 1013.4 |
| 20260510113851 | 16 | 337 | 0.0 | 0.0 | 0.00 | 0.03 | 0.03 | 94 | 1013.3 |
| 20260510113352 | 16 | 337 | 0.0 | 0.0 | 0.00 | 0.03 | 0.03 | 94 | 1013.2 |
| 20260510113033 | 16 | 337 | 0.0 | 0.0 | 0.00 | 0.00 | 0.03 | 94 | 1012.9 |
| 20260510112850 | 16 | 337 | 0.0 | 0.0 | 0.00 | 0.03 | 0.03 | 94 | 1013.1 |
| 20260510112349 | 16 | 337 | 0.0 | 0.0 | 0.00 | 0.03 | 0.03 | 94 | 1013.0 |
| 20260510111830 | 16 | 337 | 0.0 | 0.0 | 0.00 | 0.03 | 0.03 | 94 | 1012.9 |
| 20260510111527 | 16 | 337 | 0.0 | 0.0 | 0.00 | 0.00 | 0.03 | 94 | 1012.7 |
| 20260510111359 | 16 | 337 | 0.0 | 0.0 | 0.00 | 0.03 | 0.03 | 94 | 1012.9 |
| 20260510110839 | 16 | 337 | 0.0 | 0.0 | 0.00 | 0.03 | 0.03 | 94 | 1012.9 |
| 20260510110353 | 16 | 337 | 0.0 | 0.0 | 0.00 | 0.03 | 0.03 | 94 | 1012.9 |
| 20260510110030 | 16 | 337 | 0.0 | 0.0 | 0.00 | 0.00 | 0.03 | 94 | 1012.6 |
| 20260510105854 | 16 | 337 | 0.0 | 0.0 | 0.00 | 0.03 | 0.03 | 94 | 1012.8 |
| 20260510105355 | 16 | 337 | 0.0 | 0.0 | 0.00 | 0.03 | 0.03 | 94 | 1012.6 |
| 20260510104851 | 16 | 337 | 0.0 | 0.0 | 0.00 | 0.03 | 0.03 | 94 | 1012.6 |
| 20260510104553 | 15 | 282 | 0.0 | 0.0 | 0.00 | 0.00 | 0.03 | 94 | 1012.4 |
| 20260510104331 | 16 | 360 | 0.0 | 0.0 | 0.00 | 0.03 | 0.03 | 94 | 1012.4 |
| 20260510103858 | 16 | 5 | 0.0 | 0.0 | 0.00 | 0.03 | 0.03 | 94 | 1012.3 |
| 20260510103340 | 16 | 5 | 0.0 | 0.0 | 0.00 | 0.03 | 0.03 | 94 | 1012.3 |
| 20260510103025 | 15 | 5 | 0.0 | 0.0 | 0.00 | 0.00 | 0.03 | 94 | 1012.1 |
| 20260510102842 | 16 | 5 | 0.0 | 0.0 | 0.00 | 0.03 | 0.03 | 94 | 1012.2 |
| 20260510102345 | 16 | 5 | 0.0 | 0.0 | 0.00 | 0.03 | 0.03 | 94 | 1012.1 |
| 20260510101850 | 16 | 5 | 0.0 | 0.0 | 0.00 | 0.03 | 0.03 | 94 | 1012.0 |
| 20260510101512 | 15 | 5 | 0.0 | 0.0 | 0.00 | 0.00 | 0.03 | 94 | 1011.8 |
| 20260510101349 | 16 | 5 | 0.0 | 0.0 | 0.03 | 0.03 | 0.03 | 94 | 1011.9 |
| 20260510100830 | 16 | 360 | 0.0 | 1.6 | 0.03 | 0.03 | 0.03 | 94 | 1011.9 |
| 20260510100351 | 16 | 5 | 0.0 | 1.6 | 0.03 | 0.03 | 0.03 | 94 | 1011.9 |
| 20260510100028 | 15 | 5 | 0.0 | 0.0 | 0.00 | 0.00 | 0.03 | 94 | 1011.7 |
| 20260510095833 | 16 | 360 | 0.0 | 0.0 | 0.03 | 0.03 | 0.03 | 94 | 1011.9 |
| 20260510095337 | 16 | 5 | 0.0 | 0.0 | 0.03 | 0.03 | 0.03 | 94 | 1011.9 |
| 20260510094900 | 16 | 5 | 0.0 | 0.0 | 0.03 | 0.03 | 0.03 | 94 | 1011.8 |
| 20260510094558 | 16 | 5 | 0.0 | 0.0 | 0.00 | 0.00 | 0.03 | 94 | 1011.6 |
| 20260510094341 | 16 | 5 | 0.0 | 1.6 | 0.03 | 0.03 | 0.03 | 94 | 1011.7 |
| 20260510093843 | 16 | 5 | 0.0 | 1.6 | 0.03 | 0.03 | 0.03 | 94 | 1011.7 |
| 20260510093411 | 16 | 360 | 0.0 | 0.0 | 0.03 | 0.03 | 0.03 | 94 | 1011.7 |
| 20260510093017 | 16 | 360 | 0.0 | 0.0 | 0.00 | 0.00 | 0.03 | 94 | 1011.6 |
| 20260510092850 | 16 | 5 | 0.0 | 0.0 | 0.03 | 0.03 | 0.03 | 94 | 1011.7 |
| 20260510092352 | 16 | 360 | 0.0 | 0.0 | 0.03 | 0.03 | 0.03 | 94 | 1011.6 |
| 20260510091833 | 16 | 5 | 0.0 | 0.0 | 0.03 | 0.03 | 0.03 | 94 | 1011.5 |
| 20260510091542 | 16 | 5 | 0.0 | 0.0 | 0.00 | 0.00 | 0.00 | 94 | 1011.3 |
| 20260510091334 | 16 | 5 | 0.0 | 0.0 | 0.00 | 0.00 | 0.00 | 94 | 1011.4 |
| 20260510090835 | 16 | 5 | 0.0 | 0.0 | 0.00 | 0.00 | 0.00 | 94 | 1011.3 |
| 20260510090412 | 16 | 5 | 0.0 | 0.0 | 0.00 | 0.00 | 0.00 | 94 | 1011.2 |
| 20260510090057 | 16 | 5 | 0.0 | 0.0 | 0.00 | 0.00 | 0.00 | 93 | 1011.0 |
| 20260510085853 | 16 | 5 | 0.0 | 0.0 | 0.00 | 0.00 | 0.00 | 93 | 1011.1 |
| 20260510085353 | 16 | 5 | 0.0 | 0.0 | 0.00 | 0.00 | 0.00 | 93 | 1011.1 |
| 20260510084853 | 16 | 360 | 0.0 | 0.0 | 0.00 | 0.00 | 0.00 | 93 | 1011.0 |
| 20260510084519 | 16 | 5 | 0.0 | 0.0 | 0.00 | 0.00 | 0.00 | 93 | 1010.8 |
| 20260510084333 | 16 | 360 | 0.0 | 0.0 | 0.00 | 0.00 | 0.00 | 93 | 1011.0 |
| 20260510083901 | 16 | 5 | 0.0 | 0.0 | 0.00 | 0.00 | 0.00 | 93 | 1010.9 |
| 20260510083342 | 16 | 360 | 0.0 | 0.0 | 0.00 | 0.00 | 0.00 | 93 | 1011.1 |
| 20260510083048 | 16 | 5 | 0.0 | 0.0 | 0.00 | 0.00 | 0.00 | 93 | 1010.9 |
| 20260510082843 | 16 | 360 | 0.0 | 0.0 | 0.00 | 0.00 | 0.00 | 93 | 1011.1 |
| 20260510082345 | 16 | 360 | 0.0 | 0.0 | 0.00 | 0.00 | 0.00 | 93 | 1011.1 |
| 20260510081843 | 16 | 5 | 0.0 | 0.0 | 0.00 | 0.00 | 0.00 | 93 | 1011.2 |
| 20260510081548 | 16 | 5 | 0.0 | 0.0 | 0.00 | 0.00 | 0.00 | 93 | 1010.9 |
| 20260510081344 | 16 | 5 | 0.0 | 0.0 | 0.00 | 0.00 | 0.00 | 93 | 1011.1 |
| 20260510080846 | 16 | 360 | 0.0 | 0.0 | 0.00 | 0.00 | 0.00 | 93 | 1011.0 |
| 20260510080351 | 16 | 5 | 0.0 | 0.0 | 0.00 | 0.00 | 0.00 | 93 | 1011.0 |
| 20260510080022 | 16 | 5 | 0.0 | 0.0 | 0.00 | 0.00 | 0.00 | 93 | 1010.8 |
| 20260510075849 | 16 | 5 | 0.0 | 0.0 | 0.00 | 0.00 | 0.00 | 93 | 1011.0 |
| 20260510075350 | 16 | 5 | 0.0 | 0.0 | 0.00 | 0.00 | 0.00 | 93 | 1011.0 |
| 20260510074831 | 16 | 5 | 0.0 | 0.0 | 0.00 | 0.00 | 0.00 | 93 | 1010.9 |
| 20260510074556 | 16 | 360 | 0.0 | 0.0 | 0.00 | 0.00 | 0.00 | 93 | 1010.7 |
| 20260510074331 | 16 | 5 | 0.0 | 0.0 | 0.00 | 0.00 | 0.00 | 93 | 1010.8 |
| 20260510073833 | 16 | 5 | 0.0 | 0.0 | 0.00 | 0.00 | 0.00 | 93 | 1010.9 |
| 20260510073333 | 16 | 360 | 0.0 | 0.0 | 0.00 | 0.00 | 0.00 | 93 | 1010.9 |
| 20260510073052 | 16 | 5 | 0.0 | 0.0 | 0.00 | 0.00 | 0.00 | 93 | 1010.7 |
| 20260510072902 | 16 | 5 | 0.0 | 0.0 | 0.00 | 0.00 | 0.00 | 93 | 1010.8 |
| 20260510072342 | 16 | 5 | 0.0 | 0.0 | 0.00 | 0.00 | 0.00 | 93 | 1010.7 |
| 20260510071843 | 16 | 5 | 0.0 | 0.0 | 0.00 | 0.00 | 0.00 | 93 | 1010.7 |
| 20260510071521 | 16 | 5 | 0.0 | 0.0 | 0.00 | 0.00 | 0.00 | 93 | 1010.5 |
| 20260510071343 | 16 | 5 | 0.0 | 0.0 | 0.00 | 0.00 | 0.00 | 93 | 1010.7 |
| 20260510070843 | 16 | 5 | 0.0 | 0.0 | 0.00 | 0.00 | 0.00 | 93 | 1010.7 |
| 20260510070352 | 16 | 5 | 0.0 | 0.0 | 0.00 | 0.00 | 0.00 | 93 | 1010.8 |
| 20260510070020 | 16 | 5 | 0.0 | 0.0 | 0.00 | 0.00 | 0.00 | 93 | 1010.7 |
| 20260510065833 | 16 | 360 | 0.0 | 0.0 | 0.00 | 0.00 | 0.00 | 93 | 1010.9 |
| 20260510065334 | 16 | 5 | 0.0 | 0.0 | 0.00 | 0.00 | 0.00 | 93 | 1010.9 |
| 20260510064835 | 16 | 5 | 0.0 | 0.0 | 0.00 | 0.00 | 0.00 | 93 | 1010.8 |
| 20260510064510 | 16 | 360 | 0.0 | 0.0 | 0.00 | 0.00 | 0.00 | 93 | 1010.7 |
| 20260510064336 | 16 | 5 | 0.0 | 0.0 | 0.00 | 0.00 | 0.00 | 93 | 1010.9 |
| 20260510063834 | 16 | 360 | 0.0 | 0.0 | 0.00 | 0.00 | 0.00 | 93 | 1010.8 |
| 20260510063334 | 16 | 5 | 0.0 | 0.0 | 0.00 | 0.00 | 0.00 | 93 | 1010.8 |
| 20260510063055 | 16 | 360 | 0.0 | 0.0 | 0.00 | 0.00 | 0.00 | 93 | 1010.5 |
| 20260510062836 | 16 | 5 | 0.0 | 0.0 | 0.00 | 0.00 | 0.00 | 93 | 1010.7 |
| 20260510062339 | 16 | 5 | 0.0 | 0.0 | 0.00 | 0.00 | 0.00 | 93 | 1010.6 |
| 20260510061841 | 16 | 5 | 0.0 | 0.0 | 0.00 | 0.00 | 0.00 | 93 | 1010.6 |
| 20260510061539 | 16 | 5 | 0.0 | 0.0 | 0.00 | 0.00 | 0.00 | 93 | 1010.4 |
| 20260510061342 | 16 | 5 | 0.0 | 0.0 | 0.00 | 0.00 | 0.00 | 93 | 1010.7 |
| 20260510060843 | 16 | 5 | 0.0 | 0.0 | 0.00 | 0.00 | 0.00 | 93 | 1010.7 |
| 20260510060351 | 16 | 5 | 0.0 | 0.0 | 0.00 | 0.00 | 0.00 | 93 | 1010.8 |
| 20260510060041 | 16 | 360 | 0.0 | 0.0 | 0.00 | 0.00 | 0.00 | 93 | 1010.7 |
| 20260510055900 | 17 | 5 | 0.0 | 0.0 | 0.00 | 0.00 | 0.00 | 93 | 1010.8 |
| 20260510055407 | 17 | 5 | 0.0 | 0.0 | 0.00 | 0.00 | 0.00 | 93 | 1010.9 |
| 20260510054848 | 17 | 5 | 0.0 | 0.0 | 0.00 | 0.00 | 0.00 | 93 | 1010.9 |
| 20260510054547 | 16 | 5 | 0.0 | 0.0 | 0.00 | 0.00 | 0.00 | 93 | 1010.8 |
| 20260510054350 | 17 | 5 | 0.0 | 0.0 | 0.00 | 0.00 | 0.00 | 93 | 1011.0 |
| 20260510053852 | 17 | 5 | 0.0 | 0.0 | 0.00 | 0.00 | 0.00 | 93 | 1011.0 |
| 20260510053350 | 17 | 5 | 0.0 | 0.0 | 0.00 | 0.00 | 0.00 | 93 | 1011.0 |
| 20260510053037 | 16 | 5 | 0.0 | 0.0 | 0.00 | 0.00 | 0.00 | 93 | 1010.9 |
| 20260510052852 | 17 | 360 | 0.0 | 1.6 | 0.00 | 0.00 | 0.00 | 93 | 1011.1 |
| 20260510052353 | 17 | 360 | 0.0 | 1.6 | 0.00 | 0.00 | 0.00 | 93 | 1011.1 |
| 20260510051833 | 17 | 360 | 0.0 | 0.0 | 0.00 | 0.00 | 0.00 | 93 | 1011.2 |
| 20260510051503 | 16 | 5 | 0.0 | 0.0 | 0.00 | 0.00 | 0.00 | 93 | 1011.2 |
| 20260510051358 | 17 | 5 | 0.0 | 0.0 | 0.00 | 0.00 | 0.00 | 93 | 1011.4 |
| 20260510050838 | 17 | 5 | 0.0 | 1.6 | 0.00 | 0.00 | 0.00 | 93 | 1011.3 |
| 20260510050351 | 17 | 5 | 0.0 | 1.6 | 0.00 | 0.00 | 0.00 | 93 | 1011.2 |
| 20260510050007 | 17 | 5 | 0.0 | 0.0 | 0.00 | 0.00 | 0.00 | 93 | 1011.1 |
| 20260510045848 | 17 | 360 | 0.0 | 1.6 | 0.00 | 0.00 | 0.00 | 93 | 1011.3 |
| 20260510045348 | 17 | 5 | 0.0 | 0.0 | 0.00 | 0.00 | 0.00 | 93 | 1011.3 |
| 20260510044916 | 17 | 5 | 0.0 | 0.0 | 0.00 | 0.00 | 0.00 | 93 | 1011.5 |
| 20260510044536 | 17 | 5 | 0.0 | 0.0 | 0.00 | 0.00 | 0.00 | 92 | 1011.4 |
| 20260510044355 | 17 | 360 | 0.0 | 0.0 | 0.00 | 0.00 | 0.00 | 92 | 1011.4 |
| 20260510043856 | 17 | 5 | 0.0 | 0.0 | 0.00 | 0.00 | 0.00 | 92 | 1011.4 |
| 20260510043356 | 17 | 5 | 0.0 | 0.0 | 0.00 | 0.00 | 0.00 | 92 | 1011.3 |
| 20260510043004 | 17 | 5 | 0.0 | 0.0 | 0.00 | 0.00 | 0.00 | 92 | 1011.2 |
| 20260510042834 | 17 | 360 | 0.0 | 0.0 | 0.00 | 0.00 | 0.00 | 92 | 1011.4 |
| 20260510042330 | 17 | 5 | 0.0 | 0.0 | 0.00 | 0.00 | 0.00 | 92 | 1011.3 |
| 20260510041830 | 17 | 5 | 0.0 | 0.0 | 0.00 | 0.00 | 0.00 | 92 | 1011.3 |
| 20260510041553 | 17 | 5 | 0.0 | 0.0 | 0.00 | 0.00 | 0.00 | 92 | 1011.1 |
| 20260510041332 | 17 | 360 | 0.0 | 0.0 | 0.00 | 0.00 | 0.00 | 92 | 1011.2 |
| 20260510040831 | 17 | 360 | 0.0 | 0.0 | 0.00 | 0.00 | 0.00 | 92 | 1011.2 |
| 20260510040344 | 17 | 5 | 0.0 | 0.0 | 0.00 | 0.00 | 0.00 | 92 | 1011.3 |
| 20260510040016 | 17 | 360 | 0.0 | 0.0 | 0.00 | 0.00 | 0.00 | 92 | 1011.1 |
| 20260510035911 | 17 | 5 | 0.0 | 0.0 | 0.00 | 0.00 | 0.00 | 92 | 1011.2 |
| 20260510035352 | 17 | 360 | 0.0 | 0.0 | 0.00 | 0.00 | 0.00 | 92 | 1011.1 |
| 20260510034850 | 17 | 5 | 0.0 | 0.0 | 0.00 | 0.00 | 0.00 | 92 | 1011.2 |
| 20260510034543 | 17 | 5 | 0.0 | 0.0 | 0.00 | 0.00 | 0.00 | 92 | 1011.0 |
| 20260510034354 | 17 | 5 | 0.0 | 0.0 | 0.00 | 0.00 | 0.00 | 92 | 1011.1 |
| 20260510033854 | 17 | 5 | 0.0 | 0.0 | 0.00 | 0.00 | 0.00 | 92 | 1011.0 |
| 20260510033355 | 17 | 5 | 0.0 | 0.0 | 0.00 | 0.00 | 0.00 | 92 | 1011.0 |
| 20260510033024 | 17 | 5 | 0.0 | 0.0 | 0.00 | 0.00 | 0.00 | 92 | 1011.0 |
| 20260510032851 | 17 | 5 | 0.0 | 0.0 | 0.00 | 0.00 | 0.00 | 92 | 1011.1 |
| 20260510032351 | 17 | 5 | 0.0 | 0.0 | 0.00 | 0.00 | 0.00 | 92 | 1011.1 |
| 20260510031849 | 17 | 5 | 0.0 | 0.0 | 0.00 | 0.00 | 0.00 | 92 | 1011.0 |
| 20260510031516 | 17 | 5 | 0.0 | 0.0 | 0.00 | 0.00 | 0.00 | 92 | 1010.8 |
| 20260510031418 | 17 | 5 | 0.0 | 0.0 | 0.00 | 0.00 | 0.00 | 92 | 1011.0 |
| 20260510030857 | 17 | 360 | 0.0 | 0.0 | 0.00 | 0.00 | 0.00 | 92 | 1010.9 |
| 20260510030349 | 17 | 360 | 0.0 | 0.0 | 0.00 | 0.00 | 0.00 | 92 | 1011.0 |
| 20260510030103 | 17 | 360 | 0.0 | 0.0 | 0.00 | 0.00 | 0.00 | 92 | 1010.7 |
| 20260510030004 | 17 | 5 | 0.0 | 0.0 | 0.00 | 0.00 | 0.00 | 92 | 1010.7 |
| 20260510025849 | 17 | 5 | 0.0 | 0.0 | 0.00 | 0.00 | 0.00 | 92 | 1010.8 |
| 20260510025417 | 17 | 360 | 0.0 | 0.0 | 0.00 | 0.03 | 0.00 | 91 | 1010.9 |
| 20260510024855 | 17 | 360 | 0.0 | 0.0 | 0.00 | 0.03 | 0.00 | 91 | 1010.9 |
| 20260510024537 | 17 | 5 | 0.0 | 0.0 | 0.00 | 0.00 | 0.00 | 91 | 1010.7 |
| 20260510024356 | 17 | 5 | 0.0 | 0.0 | 0.00 | 0.03 | 0.00 | 91 | 1010.8 |
| 20260510023853 | 17 | 360 | 0.0 | 0.0 | 0.00 | 0.03 | 0.00 | 91 | 1010.8 |
| 20260510023334 | 17 | 360 | 0.0 | 0.0 | 0.00 | 0.03 | 0.00 | 91 | 1010.8 |
| 20260510023100 | 17 | 5 | 0.0 | 0.0 | 0.00 | 0.00 | 0.00 | 91 | 1010.6 |
| 20260510023002 | 17 | 360 | 0.0 | 0.0 | 0.00 | 0.00 | 0.00 | 91 | 1010.7 |
| 20260510022834 | 17 | 360 | 0.0 | 0.0 | 0.00 | 0.03 | 0.00 | 91 | 1010.9 |
| 20260510022336 | 17 | 5 | 0.0 | 0.0 | 0.00 | 0.03 | 0.00 | 91 | 1010.8 |
| 20260510021836 | 18 | 5 | 0.0 | 0.0 | 0.00 | 0.03 | 0.00 | 91 | 1010.8 |
| 20260510021544 | 17 | 360 | 0.0 | 0.0 | 0.00 | 0.00 | 0.00 | 91 | 1010.6 |
| 20260510021336 | 18 | 5 | 0.0 | 0.0 | 0.00 | 0.03 | 0.00 | 91 | 1010.7 |
| 20260510020835 | 18 | 5 | 0.0 | 0.0 | 0.00 | 0.03 | 0.00 | 91 | 1010.7 |
| 20260510020347 | 18 | 5 | 0.0 | 0.0 | 0.00 | 0.03 | 0.00 | 91 | 1010.6 |
| 20260510020010 | 17 | 360 | 0.0 | 0.0 | 0.00 | 0.00 | 0.00 | 91 | 1010.5 |
| 20260510015847 | 18 | 360 | 0.0 | 0.0 | 0.00 | 0.03 | 0.00 | 91 | 1010.6 |
| 20260510015348 | 18 | 360 | 0.0 | 0.0 | 0.00 | 0.03 | 0.00 | 91 | 1010.8 |
| 20260510014847 | 18 | 5 | 0.0 | 0.0 | 0.00 | 0.03 | 0.00 | 90 | 1010.6 |
| 20260510014600 | 18 | 360 | 0.0 | 0.0 | 0.00 | 0.00 | 0.00 | 90 | 1010.5 |
| 20260510014502 | 18 | 5 | 0.0 | 0.0 | 0.00 | 0.00 | 0.00 | 90 | 1010.4 |
| 20260510014411 | 18 | 5 | 0.0 | 0.0 | 0.00 | 0.03 | 0.00 | 90 | 1010.6 |
| 20260510013851 | 18 | 360 | 0.0 | 0.0 | 0.00 | 0.03 | 0.00 | 90 | 1010.4 |
| 20260510013353 | 18 | 5 | 0.0 | 0.0 | 0.00 | 0.03 | 0.00 | 90 | 1010.2 |
| 20260510013010 | 18 | 5 | 0.0 | 0.0 | 0.00 | 0.00 | 0.00 | 90 | 1010.0 |
| 20260510012834 | 18 | 5 | 0.0 | 0.0 | 0.00 | 0.03 | 0.00 | 90 | 1010.2 |
| 20260510012334 | 18 | 360 | 0.0 | 0.0 | 0.00 | 0.03 | 0.00 | 90 | 1010.2 |
| 20260510011835 | 18 | 360 | 0.0 | 0.0 | 0.00 | 0.03 | 0.00 | 89 | 1010.0 |
| 20260510011601 | 18 | 5 | 0.0 | 0.0 | 0.00 | 0.00 | 0.00 | 89 | 1009.9 |
| 20260510011337 | 19 | 360 | 0.0 | 0.0 | 0.00 | 0.03 | 0.00 | 89 | 1010.0 |
| 20260510010903 | 19 | 5 | 0.0 | 0.0 | 0.00 | 0.03 | 0.00 | 89 | 1010.0 |
| 20260510010336 | 19 | 5 | 0.0 | 0.0 | 0.00 | 0.03 | 0.00 | 89 | 1010.0 |
| 20260510010006 | 19 | 5 | 0.0 | 0.0 | 0.00 | 0.00 | 0.00 | 88 | 1009.8 |
| 20260510005837 | 19 | 5 | 0.0 | 0.0 | 0.00 | 0.03 | 0.00 | 88 | 1010.0 |
| 20260510005405 | 19 | 5 | 0.0 | 0.0 | 0.00 | 0.03 | 0.00 | 88 | 1009.9 |
| 20260510004840 | 19 | 360 | 0.0 | 0.0 | 0.00 | 0.03 | 0.00 | 87 | 1009.8 |
| 20260510004534 | 19 | 360 | 0.0 | 0.0 | 0.00 | 0.00 | 0.00 | 87 | 1009.7 |
| 20260510004340 | 20 | 5 | 0.0 | 0.0 | 0.00 | 0.03 | 0.00 | 87 | 1009.8 |
| 20260510003840 | 20 | 360 | 0.0 | 0.0 | 0.00 | 0.03 | 0.00 | 87 | 1009.8 |
| 20260510003342 | 20 | 5 | 0.0 | 0.0 | 0.00 | 0.03 | 0.00 | 87 | 1009.6 |
| 20260510003024 | 20 | 5 | 0.0 | 0.0 | 0.00 | 0.00 | 0.00 | 87 | 1009.5 |
| 20260510002843 | 20 | 5 | 0.0 | 0.0 | 0.00 | 0.03 | 0.00 | 87 | 1009.7 |
| 20260510002345 | 20 | 360 | 0.0 | 0.0 | 0.00 | 0.03 | 0.00 | 86 | 1009.7 |
| 20260510001845 | 20 | 360 | 0.0 | 0.0 | 0.00 | 0.03 | 0.00 | 86 | 1009.8 |
| 20260510001512 | 20 | 5 | 0.0 | 0.0 | 0.00 | 0.00 | 0.00 | 86 | 1009.7 |
| 20260510001344 | 20 | 360 | 0.0 | 0.0 | 0.00 | 0.03 | 0.00 | 86 | 1009.9 |
| 20260510000843 | 20 | 5 | 0.0 | 0.0 | 0.00 | 0.03 | 0.00 | 86 | 1009.8 |
| 20260510000334 | 21 | 360 | 0.0 | 0.0 | 0.00 | 0.03 | 0.00 | 85 | 1009.8 |
| 20260510000055 | 20 | 360 | 0.0 | 0.0 | 0.00 | 0.00 | 0.00 | 85 | 1009.6 |
| 20260509235834 | 21 | 5 | 0.0 | 0.0 | 0.00 | 0.03 | 0.00 | 85 | 1009.8 |
| 20260509235335 | 21 | 5 | 0.0 | 0.0 | 0.00 | 0.03 | 0.00 | 84 | 1009.8 |
| 20260509234839 | 21 | 5 | 0.0 | 0.0 | 0.00 | 0.03 | 0.00 | 84 | 1009.6 |
| 20260509234544 | 21 | 5 | 0.0 | 0.0 | 0.00 | 0.00 | 0.00 | 84 | 1009.4 |
| 20260509234334 | 21 | 360 | 0.0 | 0.0 | 0.00 | 0.03 | 0.00 | 84 | 1009.6 |
| 20260509233834 | 21 | 360 | 0.0 | 0.0 | 0.00 | 0.03 | 0.00 | 83 | 1009.4 |
| 20260509233337 | 21 | 5 | 0.0 | 0.0 | 0.00 | 0.03 | 0.00 | 83 | 1009.3 |
| 20260509233024 | 21 | 360 | 0.0 | 0.0 | 0.00 | 0.00 | 0.00 | 83 | 1009.0 |
| 20260509232839 | 22 | 5 | 0.0 | 0.0 | 0.00 | 0.03 | 0.00 | 83 | 1009.0 |
| 20260509232340 | 22 | 360 | 0.0 | 0.0 | 0.00 | 0.03 | 0.00 | 83 | 1008.9 |
| 20260509231840 | 22 | 360 | 0.0 | 0.0 | 0.00 | 0.03 | 0.00 | 83 | 1009.1 |
| 20260509231513 | 22 | 5 | 0.0 | 0.0 | 0.00 | 0.00 | 0.00 | 82 | 1009.0 |
| 20260509231341 | 22 | 5 | 0.0 | 0.0 | 0.00 | 0.03 | 0.00 | 82 | 1009.1 |
| 20260509230840 | 22 | 5 | 0.0 | 1.6 | 0.00 | 0.03 | 0.00 | 82 | 1008.9 |
| 20260509230354 | 22 | 5 | 0.0 | 1.6 | 0.00 | 0.03 | 0.00 | 82 | 1008.9 |
| 20260509230035 | 22 | 5 | 0.0 | 0.0 | 0.00 | 0.00 | 0.00 | 81 | 1008.8 |
| 20260509225853 | 22 | 5 | 1.6 | 1.6 | 0.00 | 0.03 | 0.00 | 81 | 1009.0 |
| 20260509225353 | 22 | 9 | 0.0 | 1.6 | 0.00 | 0.03 | 0.00 | 81 | 1008.9 |
| 20260509224854 | 22 | 29 | 0.0 | 1.6 | 0.00 | 0.03 | 0.00 | 80 | 1008.8 |
| 20260509224505 | 22 | 29 | 0.0 | 0.0 | 0.00 | 0.00 | 0.00 | 81 | 1008.7 |
| 20260509224333 | 22 | 30 | 0.0 | 1.6 | 0.00 | 0.03 | 0.00 | 81 | 1008.8 |
| 20260509223836 | 22 | 30 | 0.0 | 1.6 | 0.00 | 0.03 | 0.00 | 80 | 1008.9 |
| 20260509223337 | 22 | 343 | 0.0 | 1.6 | 0.00 | 0.03 | 0.00 | 79 | 1009.0 |
| 20260509223105 | 22 | 343 | 0.0 | 0.0 | 0.00 | 0.00 | 0.00 | 79 | 1008.8 |
| 20260509222838 | 22 | 55 | 0.0 | 1.6 | 0.00 | 0.03 | 0.00 | 80 | 1009.0 |
| 20260509222336 | 22 | 55 | 1.6 | 1.6 | 0.00 | 0.03 | 0.00 | 79 | 1008.9 |
| 20260509221835 | 22 | 331 | 0.0 | 3.2 | 0.00 | 0.03 | 0.00 | 79 | 1009.0 |
| 20260509221544 | 22 | 331 | 0.0 | 0.0 | 0.00 | 0.00 | 0.00 | 79 | 1009.0 |
| 20260509221336 | 22 | 330 | 0.0 | 3.2 | 0.00 | 0.03 | 0.00 | 79 | 1009.1 |
| 20260509220837 | 22 | 350 | 0.0 | 6.4 | 0.00 | 0.03 | 0.00 | 78 | 1009.1 |
| 20260509220348 | 22 | 355 | 1.6 | 6.4 | 0.00 | 0.03 | 0.00 | 77 | 1009.1 |
| 20260509220100 | 22 | 272 | 0.0 | 0.0 | 0.00 | 0.00 | 0.00 | 77 | 1008.9 |
| 20260509220004 | 22 | 80 | 0.0 | 0.0 | 0.00 | 0.00 | 0.00 | 77 | 1008.9 |
| 20260509215848 | 22 | 59 | 0.0 | 6.4 | 0.00 | 0.03 | 0.00 | 77 | 1009.0 |
| 20260509215347 | 22 | 340 | 0.0 | 4.8 | 0.00 | 0.03 | 0.00 | 77 | 1008.9 |
| 20260509214849 | 23 | 340 | 1.6 | 4.8 | 0.00 | 0.03 | 0.00 | 76 | 1008.9 |
| 20260509214551 | 22 | 348 | 1.6 | 0.0 | 0.00 | 0.00 | 0.00 | 76 | 1008.8 |
| 20260509214332 | 23 | 52 | 1.6 | 8.0 | 0.00 | 0.03 | 0.00 | 76 | 1008.9 |
| 20260509213830 | 23 | 13 | 1.6 | 3.2 | 0.00 | 0.03 | 0.00 | 78 | 1008.8 |
| 20260509213330 | 23 | 59 | 0.0 | 3.2 | 0.00 | 0.03 | 0.00 | 79 | 1008.8 |
| 20260509213039 | 22 | 59 | 0.0 | 0.0 | 0.00 | 0.00 | 0.00 | 79 | 1008.7 |
| 20260509212831 | 22 | 46 | 1.6 | 3.2 | 0.00 | 0.03 | 0.00 | 78 | 1008.8 |
| 20260509212331 | 22 | 24 | 1.6 | 3.2 | 0.00 | 0.03 | 0.00 | 78 | 1008.9 |
| 20260509211831 | 22 | 9 | 0.0 | 3.2 | 0.00 | 0.03 | 0.00 | 79 | 1008.8 |
| 20260509211532 | 22 | 9 | 1.6 | 0.0 | 0.00 | 0.00 | 0.00 | 78 | 1008.7 |
| 20260509211332 | 22 | 9 | 1.6 | 3.2 | 0.00 | 0.03 | 0.00 | 77 | 1008.8 |
| 20260509210832 | 22 | 42 | 0.0 | 3.2 | 0.00 | 0.03 | 0.00 | 76 | 1008.8 |
| 20260509210415 | 23 | 315 | 1.6 | 8.0 | 0.00 | 0.03 | 0.00 | 74 | 1008.9 |
| 20260509210042 | 23 | 283 | 1.6 | 0.0 | 0.00 | 0.00 | 0.00 | 74 | 1008.7 |
| 20260509205854 | 23 | 99 | 3.2 | 8.0 | 0.00 | 0.03 | 0.00 | 73 | 1008.8 |
| 20260509205333 | 23 | 9 | 1.6 | 8.0 | 0.00 | 0.05 | 0.00 | 74 | 1008.6 |
| 20260509204859 | 23 | 346 | 3.2 | 8.0 | 0.00 | 0.05 | 0.00 | 76 | 1008.6 |
| 20260509204549 | 23 | 292 | 1.6 | 0.0 | 0.00 | 0.00 | 0.00 | 75 | 1008.4 |
| 20260509204336 | 23 | 82 | 0.0 | 6.4 | 0.00 | 0.05 | 0.00 | 79 | 1008.5 |
| 20260509203904 | 22 | 92 | 0.0 | 6.4 | 0.00 | 0.05 | 0.00 | 76 | 1008.8 |
| 20260509203345 | 22 | 36 | 1.6 | 6.4 | 0.00 | 0.05 | 0.00 | 79 | 1008.7 |
| 20260509203014 | 21 | 340 | 1.6 | 0.0 | 0.00 | 0.00 | 0.00 | 79 | 1008.5 |
| 20260509202845 | 22 | 269 | 1.6 | 4.8 | 0.00 | 0.05 | 0.00 | 78 | 1008.7 |
| 20260509202346 | 21 | 360 | 1.6 | 6.4 | 0.00 | 0.05 | 0.00 | 79 | 1008.7 |
| 20260509201846 | 21 | 342 | 3.2 | 11.3 | 0.00 | 0.05 | 0.00 | 79 | 1008.9 |
| 20260509201504 | 21 | 309 | 1.6 | 0.0 | 0.00 | 0.00 | 0.00 | 79 | 1008.9 |
| 20260509201347 | 21 | 348 | 1.6 | 11.3 | 0.00 | 0.05 | 0.00 | 79 | 1009.1 |
| 20260509200847 | 21 | 350 | 0.0 | 4.8 | 0.00 | 0.05 | 0.00 | 79 | 1009.0 |
| 20260509200339 | 21 | 345 | 1.6 | 3.2 | 0.00 | 0.05 | 0.00 | 80 | 1009.0 |
| 20260509200032 | 21 | 80 | 0.0 | 0.0 | 0.00 | 0.00 | 0.00 | 79 | 1009.1 |
| 20260509195841 | 21 | 80 | 0.0 | 1.6 | 0.00 | 0.05 | 0.00 | 80 | 1009.3 |
| 20260509195341 | 22 | 80 | 0.0 | 1.6 | 0.00 | 0.05 | 0.00 | 78 | 1009.3 |
| 20260509194837 | 22 | 80 | 0.0 | 1.6 | 0.00 | 0.05 | 0.00 | 78 | 1009.3 |
| 20260509194526 | 22 | 80 | 0.0 | 0.0 | 0.00 | 0.00 | 0.00 | 78 | 1009.1 |
| 20260509194340 | 22 | 80 | 0.0 | 3.2 | 0.00 | 0.05 | 0.00 | 77 | 1009.3 |
| 20260509193908 | 22 | 80 | 0.0 | 3.2 | 0.00 | 0.05 | 0.00 | 76 | 1009.1 |
| 20260509193416 | 22 | 146 | 0.0 | 3.2 | 0.00 | 0.05 | 0.00 | 75 | 1009.3 |
| 20260509193031 | 22 | 341 | 1.6 | 0.0 | 0.00 | 0.00 | 0.00 | 74 | 1009.2 |
| 20260509192854 | 22 | 47 | 0.0 | 6.4 | 0.00 | 0.05 | 0.00 | 74 | 1009.4 |
| 20260509192357 | 22 | 303 | 1.6 | 6.4 | 0.00 | 0.05 | 0.00 | 73 | 1009.5 |
| 20260509191906 | 22 | 60 | 0.0 | 4.8 | 0.00 | 0.05 | 0.00 | 74 | 1009.5 |
| 20260509191540 | 22 | 60 | 1.6 | 0.0 | 0.00 | 0.00 | 0.00 | 73 | 1009.3 |
| 20260509191347 | 22 | 254 | 1.6 | 4.8 | 0.00 | 0.05 | 0.00 | 73 | 1009.5 |
| 20260509190848 | 22 | 265 | 1.6 | 6.4 | 0.00 | 0.05 | 0.00 | 74 | 1009.5 |
| 20260509190340 | 22 | 53 | 1.6 | 6.4 | 0.00 | 0.05 | 0.00 | 73 | 1009.4 |
| 20260509190008 | 21 | 345 | 1.6 | 0.0 | 0.00 | 0.00 | 0.00 | 75 | 1009.3 |
| 20260509185837 | 22 | 317 | 1.6 | 4.8 | 0.00 | 0.05 | 0.00 | 73 | 1009.5 |
| 20260509185405 | 22 | 237 | 1.6 | 4.8 | 0.00 | 0.08 | 0.00 | 74 | 1009.6 |
| 20260509184846 | 21 | 53 | 1.6 | 4.8 | 0.00 | 0.08 | 0.00 | 76 | 1009.6 |
| 20260509184553 | 21 | 355 | 1.6 | 0.0 | 0.00 | 0.00 | 0.00 | 74 | 1009.5 |
| 20260509184346 | 22 | 344 | 1.6 | 4.8 | 0.00 | 0.08 | 0.00 | 76 | 1009.7 |
| 20260509183845 | 22 | 275 | 1.6 | 4.8 | 0.00 | 0.08 | 0.00 | 72 | 1009.8 |
| 20260509183347 | 22 | 101 | 1.6 | 4.8 | 0.00 | 0.08 | 0.00 | 73 | 1009.8 |
| 20260509183024 | 22 | 19 | 1.6 | 0.0 | 0.00 | 0.00 | 0.00 | 72 | 1009.6 |
| 20260509182848 | 22 | 18 | 0.0 | 11.3 | 0.00 | 0.08 | 0.00 | 72 | 1009.8 |
| 20260509182330 | 22 | 44 | 0.0 | 6.4 | 0.00 | 0.08 | 0.00 | 74 | 1009.9 |
| 20260509181858 | 22 | 63 | 1.6 | 6.4 | 0.00 | 0.08 | 0.00 | 71 | 1010.0 |
| 20260509181620 | 21 | 129 | 1.6 | 0.0 | 0.00 | 0.00 | 0.00 | 70 | 1009.8 |
| 20260509181337 | 22 | 180 | 1.6 | 8.0 | 0.00 | 0.08 | 0.00 | 73 | 1010.1 |
| 20260509180835 | 22 | 59 | 1.6 | 8.0 | 0.00 | 0.08 | 0.00 | 72 | 1010.1 |
| 20260509180331 | 22 | 76 | 3.2 | 6.4 | 0.00 | 0.08 | 0.00 | 70 | 1010.3 |
| 20260509180018 | 21 | 41 | 3.2 | 0.0 | 0.00 | 0.00 | 0.00 | 70 | 1010.2 |
| 20260509175830 | 22 | 59 | 3.2 | 8.0 | 0.00 | 0.08 | 0.00 | 71 | 1010.3 |
| 20260509175332 | 22 | 76 | 4.8 | 8.0 | 0.00 | 0.13 | 0.00 | 68 | 1010.5 |
| 20260509174831 | 22 | 105 | 3.2 | 6.4 | 0.00 | 0.13 | 0.00 | 70 | 1010.5 |
| 20260509174506 | 21 | 88 | 1.6 | 0.0 | 0.00 | 0.00 | 0.00 | 68 | 1010.4 |
| 20260509174332 | 21 | 61 | 1.6 | 6.4 | 0.00 | 0.13 | 0.00 | 69 | 1010.6 |
| 20260509173832 | 21 | 350 | 0.0 | 4.8 | 0.00 | 0.13 | 0.00 | 69 | 1010.5 |
| 20260509173332 | 22 | 5 | 1.6 | 3.2 | 0.00 | 0.13 | 0.00 | 70 | 1010.5 |
| 20260509173102 | 21 | 338 | 1.6 | 0.0 | 0.00 | 0.00 | 0.00 | 68 | 1010.5 |
| 20260509172832 | 21 | 336 | 1.6 | 4.8 | 0.00 | 0.13 | 0.00 | 70 | 1010.7 |
| 20260509172335 | 21 | 76 | 1.6 | 4.8 | 0.00 | 0.13 | 0.00 | 70 | 1010.7 |
| 20260509171837 | 21 | 44 | 0.0 | 4.8 | 0.00 | 0.13 | 0.00 | 70 | 1010.7 |
| 20260509171540 | 21 | 44 | 1.6 | 0.0 | 0.00 | 0.00 | 0.00 | 67 | 1010.5 |
| 20260509171337 | 21 | 327 | 3.2 | 4.8 | 0.00 | 0.13 | 0.00 | 67 | 1010.7 |
| 20260509170838 | 22 | 13 | 0.0 | 8.0 | 0.00 | 0.13 | 0.00 | 69 | 1010.7 |
| 20260509170354 | 21 | 45 | 3.2 | 8.0 | 0.00 | 0.13 | 0.00 | 64 | 1010.7 |
| 20260509170100 | 21 | 263 | 3.2 | 0.0 | 0.00 | 0.00 | 0.00 | 65 | 1010.6 |
| 20260509170007 | 21 | 60 | 3.2 | 0.0 | 0.00 | 0.00 | 0.00 | 64 | 1010.6 |
| 20260509165852 | 21 | 311 | 3.2 | 8.0 | 0.00 | 0.13 | 0.00 | 64 | 1010.7 |
| 20260509165333 | 22 | 307 | 1.6 | 8.0 | 0.00 | 0.18 | 0.00 | 63 | 1010.9 |
| 20260509164834 | 22 | 294 | 1.6 | 8.0 | 0.00 | 0.18 | 0.00 | 71 | 1010.9 |
| 20260509164528 | 22 | 341 | 3.2 | 0.0 | 0.00 | 0.00 | 0.00 | 69 | 1010.7 |
| 20260509164332 | 22 | 105 | 1.6 | 8.0 | 0.00 | 0.18 | 0.00 | 68 | 1010.8 |
| 20260509163859 | 22 | 22 | 1.6 | 8.0 | 0.00 | 0.18 | 0.00 | 69 | 1010.9 |
| 20260509163336 | 21 | 32 | 3.2 | 8.0 | 0.00 | 0.18 | 0.00 | 71 | 1011.0 |
| 20260509163058 | 21 | 330 | 1.6 | 0.0 | 0.00 | 0.00 | 0.00 | 71 | 1010.8 |
| 20260509162836 | 21 | 86 | 4.8 | 8.0 | 0.00 | 0.18 | 0.00 | 69 | 1010.9 |